Weather History for KIRS - August, 2014

Change the Weather History Date:

Wednesday, August 13, 2014

  Actual Average (KHAI) Record (KHAI)
Temperature  
Mean Temperature 63 °F -  
Max Temperature 75 °F 81 °F 93 °F (1988)
Min Temperature 51 °F 57 °F 44 °F (1954)
Degree Days  
Heating Degree Days 2    
Growing Degree Days 13 (Base 50)    
Moisture  
Dew Point 55 °F    
Average Humidity 73    
Maximum Humidity 100    
Minimum Humidity 47    
Precipitation  
Precipitation 0.00 in - - ()
Sea Level Pressure  
Sea Level Pressure 29.98 in    
Wind  
Wind Speed 5 mph (WNW)    
Max Wind Speed 13 mph    
Max Gust Speed 20 mph    
Visibility 10 miles    
Events      
Averages and records for this station are not official NWS values.
T = Trace of Precipitation, MM = Missing Value Source: NWS Daily Summary

Daily Weather History Graph

Daily Weather History Graph

Search for Another Location

Airport or City:

Trip Planner

Search our weather history database for the weather conditions in past years. The results will help you decide how hot, cold, wet, or windy it might be!

Date:

Astronomy

Aug. 13, 2014 Rise Set
Actual Time 6:47 AM EDT 8:44 PM EDT
Civil Twilight 6:17 AM EDT 9:14 PM EDT
Nautical Twilight 5:40 AM EDT 9:51 PM EDT
Astronomical Twilight 5:00 AM EDT 10:31 PM EDT
Moon 10:24 PM EDT (8/13) 10:19 AM EDT (8/13)
Length of Visible Light 14h 56m
Length of Day
13h 56m
Waning Gibbous, 88% of the Moon is Illuminated
Aug 13
Waning Gibbous
Aug 17
Last Quarter
Aug 25
New
Sep 2
First Quarter
Sep 8
Full

Hourly Weather History & Observations

Time (EDT) Temp. Dew Point Humidity Pressure Visibility Wind Dir Wind Speed Gust Speed Precip Events Conditions
12:14 AM 57.2 °F 55.4 °F 94% 29.94 in 10.0 mi WNW 3.5 mph - N/A   Overcast
12:55 AM 57.2 °F 55.4 °F 94% 29.95 in 10.0 mi WNW 3.5 mph - N/A   Mostly Cloudy
1:14 AM 55.4 °F 55.4 °F 100% 29.95 in 10.0 mi Calm Calm - N/A   Scattered Clouds
1:35 AM 55.4 °F 53.6 °F 94% 29.95 in 10.0 mi West 3.5 mph - N/A   Clear
1:54 AM 55.4 °F 55.4 °F 100% 29.95 in 10.0 mi West 4.6 mph - N/A   Clear
2:15 AM 55.4 °F 53.6 °F 94% 29.95 in 10.0 mi WNW 3.5 mph - N/A   Clear
2:34 AM 55.4 °F 53.6 °F 94% 29.95 in 10.0 mi West 3.5 mph - N/A   Clear
2:55 AM 55.4 °F 55.4 °F 100% 29.95 in 10.0 mi WNW 3.5 mph - N/A   Clear
3:15 AM 55.4 °F 53.6 °F 94% 29.95 in 10.0 mi West 3.5 mph - N/A   Clear
3:34 AM 55.4 °F 53.6 °F 94% 29.95 in 10.0 mi West 3.5 mph - N/A   Clear
3:55 AM 55.4 °F 53.6 °F 94% 29.95 in 10.0 mi West 3.5 mph - N/A   Clear
4:15 AM 55.4 °F 53.6 °F 94% 29.95 in 10.0 mi West 3.5 mph - N/A   Clear
4:35 AM 53.6 °F 53.6 °F 100% 29.95 in 10.0 mi Calm Calm - N/A   Clear
4:54 AM 53.6 °F 53.6 °F 100% 29.95 in 10.0 mi West 4.6 mph - N/A   Clear
5:15 AM 55.4 °F 53.6 °F 94% 29.96 in 10.0 mi West 3.5 mph - N/A   Clear
5:35 AM 55.4 °F 53.6 °F 94% 29.95 in 10.0 mi West 3.5 mph - N/A   Clear
5:54 AM 53.6 °F 53.6 °F 100% 29.96 in 10.0 mi West 4.6 mph - N/A   Clear
6:15 AM 53.6 °F 53.6 °F 100% 29.96 in 10.0 mi West 4.6 mph - N/A   Clear
6:34 AM 53.6 °F 51.8 °F 94% 29.97 in 10.0 mi West 3.5 mph - N/A   Clear
6:55 AM 51.8 °F 51.8 °F 100% 29.97 in 5.0 mi WSW 3.5 mph - N/A   Clear
7:15 AM 51.8 °F 51.8 °F 100% 29.98 in 5.0 mi Calm Calm - N/A   Clear
7:35 AM 55.4 °F 53.6 °F 94% 29.98 in 7.0 mi West 3.5 mph - N/A   Clear
9:34 AM 62.6 °F 57.2 °F 82% 30.01 in 10.0 mi WNW 6.9 mph - N/A   Clear
10:15 AM 64.4 °F 57.2 °F 77% 30.01 in 10.0 mi WNW 4.6 mph - N/A   Clear
10:34 AM 66.2 °F 57.2 °F 73% 30.01 in 10.0 mi West 4.6 mph - N/A   Clear
11:15 AM 69.8 °F 51.8 °F 53% 30.02 in 10.0 mi NW 6.9 mph - N/A   Clear
11:34 AM 71.6 °F 53.6 °F 53% 30.02 in 10.0 mi West 9.2 mph - N/A   Scattered Clouds
11:55 AM 71.6 °F 51.8 °F 50% 30.02 in 10.0 mi WNW 8.1 mph - N/A   Scattered Clouds
12:14 PM 71.6 °F 53.6 °F 53% 30.01 in 10.0 mi West 8.1 mph - N/A   Scattered Clouds
12:35 PM 73.4 °F 51.8 °F 47% 30.01 in 10.0 mi WNW 10.4 mph 16.1 mph N/A   Scattered Clouds
12:54 PM 73.4 °F 51.8 °F 47% 30.01 in 10.0 mi West 9.2 mph - N/A   Mostly Cloudy
1:15 PM 71.6 °F 53.6 °F 53% 30.01 in 10.0 mi WNW 5.8 mph - N/A   Mostly Cloudy
1:35 PM 73.4 °F 53.6 °F 50% 30.01 in 10.0 mi West 5.8 mph - N/A   Mostly Cloudy
1:55 PM 73.4 °F 53.6 °F 50% 30.00 in 10.0 mi WNW 3.5 mph - N/A   Mostly Cloudy
2:15 PM 75.2 °F 55.4 °F 50% 30.00 in 10.0 mi NW 8.1 mph - N/A   Mostly Cloudy
2:35 PM 73.4 °F 53.6 °F 50% 30.00 in 10.0 mi WNW 5.8 mph - N/A   Scattered Clouds
2:55 PM 75.2 °F 55.4 °F 50% 29.99 in 10.0 mi West 5.8 mph 17.3 mph N/A   Scattered Clouds
3:14 PM 75.2 °F 55.4 °F 50% 29.99 in 10.0 mi West 11.5 mph - N/A   Mostly Cloudy
3:35 PM 75.2 °F 55.4 °F 50% 29.99 in 10.0 mi West 11.5 mph 18.4 mph N/A   Scattered Clouds
3:55 PM 75.2 °F 55.4 °F 50% 29.99 in 10.0 mi WSW 12.7 mph 19.6 mph N/A   Mostly Cloudy
4:14 PM 75.2 °F 55.4 °F 50% 29.99 in 10.0 mi West 10.4 mph 16.1 mph N/A   Mostly Cloudy
4:35 PM 75.2 °F 57.2 °F 53% 29.98 in 10.0 mi West 10.4 mph - N/A   Mostly Cloudy
4:54 PM 75.2 °F 57.2 °F 53% 29.98 in 10.0 mi West 10.4 mph 16.1 mph N/A   Mostly Cloudy
5:15 PM 75.2 °F 59.0 °F 57% 29.98 in 10.0 mi West 11.5 mph 18.4 mph N/A   Mostly Cloudy
5:35 PM 73.4 °F 60.8 °F 65% 29.98 in 10.0 mi NW 6.9 mph - N/A   Mostly Cloudy
5:54 PM 75.2 °F 59.0 °F 57% 29.99 in 10.0 mi WNW 10.4 mph - N/A   Scattered Clouds
6:15 PM 75.2 °F 60.8 °F 61% 29.98 in 10.0 mi West 10.4 mph - N/A   Scattered Clouds
6:35 PM 75.2 °F 59.0 °F 57% 29.98 in 10.0 mi WNW 10.4 mph - N/A   Scattered Clouds
6:54 PM 73.4 °F 59.0 °F 61% 29.98 in 10.0 mi WNW 10.4 mph - N/A   Clear
7:15 PM 73.4 °F 57.2 °F 57% 29.99 in 10.0 mi NW 6.9 mph - N/A   Clear
7:34 PM 73.4 °F 57.2 °F 57% 29.99 in 10.0 mi NW 8.1 mph - N/A   Clear
7:55 PM 71.6 °F 57.2 °F 60% 29.99 in 10.0 mi NW 6.9 mph - N/A   Clear
8:14 PM 69.8 °F 57.2 °F 64% 29.99 in 10.0 mi NW 6.9 mph - N/A   Clear
8:55 PM 66.2 °F 55.4 °F 68% 29.99 in 10.0 mi NW 4.6 mph - N/A   Clear
9:35 PM 64.4 °F 53.6 °F 68% 30.00 in 10.0 mi NW 6.9 mph - N/A   Clear
9:54 PM 62.6 °F 53.6 °F 72% 30.01 in 10.0 mi WNW 3.5 mph - N/A   Clear